Погода в Апуке

Погода в Апуке : погода сейчас, прогноз погоды и архив. Всё, что Вы хотите узнать о погоде в Апуке!

Хотите узнать прогноз погоды в Апуке? Тогда Вам сюда: Погода в Апуке

Поиск расширенной информации на нашем сайте:

Другие новости

Новости СМИ2

Главная страница сайта

Новости сайта

03.07.2017

Напоминаем, что на нашем специализированном сайте Метеоцентр.Азия вы можете получить высокодетализированные автоматические прогнозы погоды по пунктам России, СНГ и мира в авиационном формате (включающие направление и скорость ветра, видимость, явления погоды, количество и форму облачности, нижнюю и верхнюю границу облачности).


Погода в Апуке - сегодня

Время (UTC), дата Ветер
(°,м/с) 
Видим.   Явления Облачность Т
(°С)
Тd
(°С)
f(%) Тe
(°С)
Pmin
(гПа)
dP
(гПа)
Po
(мм)
O2
(г/м3)
Тmin Tmax R s Состояние
почвы
18 22.07.17 090 (В) 4000 м  слаб. ливневой дождь  10/10 600 м кучево-дожд. 
[Cb cap]
+10.6 +6.6 76 +10  1013.5  1.9  760  294           
21 22.07.17 180 (Ю) 4000 м  слаб. ливневой дождь  10/10 600 м кучево-дожд. 
[Cb cap]
+10.1 +5.5 73 +9  1013.5  760  294  +8.4       
00 23.07.17 210 (ЮЗ) 20000 м  {ливн. осадки}  10/10 600 м 
[Sc]
+12.8 +7.5 70 +12  1013.2  -0.3  759  291           
03 23.07.17 230 (ЮЗ) 20000 м    10/10 600 м 
[Sc]
+13.7 +8.5 71 +13  1013.5  0.3  760  290           
06 23.07.17 180 (Ю) 10 км    10/10 600 м 
[Sc]
+11.6 +6.5 71 +11  1013.8  0.3  760  293           
09 23.07.17 180 (Ю) 10 км    10/10 600 м 
[Sc]
+10.2 +5.9 75 +9  1014.9  1.1  761  295    +13.7       
12 23.07.17 180 (Ю) 10 км    10/10 600 м 
[St]
+9.6 +4.7 71 +8  1015.1  0.2  761  295           
15 23.07.17 320 (СЗ) 10 км    10/10 1500 м кучево-дожд. 
[Cb cap]
+11.6 +7.5 76 +11  1013.2  -1.9  759  292           
18 23.07.17 180 (Ю) 20000 м    3/3 600 м 
[Sc]
+12.2 +8.6 79 +13  1011.3  -2  758  291           
21 23.07.17 180 (Ю) 20000 м    ясно 
+13.3 +8.5 73 +14  1010.5  -0.7  757  290  +9.4         
00 24.07.17 180 (Ю) 20000 м    ясно 
+14.4 +9.3 71 +15  1011.2  0.7  758  288           
03 24.07.17 180 (Ю) 20000 м    ясно 
+14.9 +9.3 69 +15  1010.7  -0.5  758  288           
06 24.07.17 180 (Ю) 20000 м    9/0 верхняя 
[Ci fib]
+13.6 +8.2 70 +13  1011.8  1.1  758  290           
09 24.07.17 180 (Ю) 20000 м    9/0 верхняя 
[Ci fib]
+11.8 +7 72 +11  1013.6  1.8  760  292    +14.9       
12 24.07.17 140 (ЮВ) 20000 м    9/0 верхняя 
[Ci fib]
+8.3 +3.4 71 +8  1013.5  -0.1  760  297           
15 24.07.17 020 (С) 20000 м    4/0 верхняя 
[Ci fib]
+9.2 +4.8 74 +9  1013.9  0.5  760  296           
18 24.07.17 020 (С) 10 км  {туман}  10/10 600 м 
[Sc]
+10.7 +6.7 76 +11  1014.2  0.3  760  294           
21 24.07.17 тихо ()   0500 м  туман  ?/?  
+11.2 +10 92 +12  1016.1  1.9  762  293  +8.3         
00 25.07.17 180 (Ю) 0500 м  туман  ?/?  
+13.9 +13.9 100 +20  1016.3  0.2  762  289           
03 25.07.17 180 (Ю) 0500 м  туман  ?/?  
+14.1 +14.1 100 +21  1016.1  -0.3  762  289           
06 25.07.17 180 (Ю) 20000 м  {туман}  10/10 600 м 
[Sc]
+13 +10.7 86 +14  1016.1  762  291           
09 25.07.17 140 (ЮВ) 20000 м    10/10 600 м 
[Sc]
+9.6 +4.9 72 +9  1017.4  1.3  763  296    +14.1       
12 25.07.17 140 (ЮВ) 20000 м    10/10 600 м 
[Sc]
+9.1 +4.6 73 +8  1017.4  763  297           
15 25.07.17 090 (В) 4000 м  слаб. ливневой дождь  10/10 600 м кучево-дожд. 
[Cb cap]
-1 +7 100 -4  1016.4  -1  762  307           
18 25.07.17 090 (В) 4000 м  слаб. ливневой дождь  10/10 600 м кучево-дожд. 
[Cb cap]
+11.2 +7.7 79 +10  1015.4  -1  761  293           
Время (UTC), дата Ветер
(°,м/с) 
Видим.   Явления Облачность Т
(°С)
Тd
(°С)
f(%) Тe
(°С)
Pmin
(гПа)
dP
(гПа)
Po
(мм)
O2
(г/м3)
Тmin Tmax R s Состояние
почвы

Для получения пояснительной информации подведите курсор к названию столбца.

ПОГОДА в Апуке - архив

Всё, что Вы хотите узнать о погоде в Апуке - удобно и подробно!

Выберите нужную дату (начиная с 1 января 2015* года) и нажмите кнопку "Найти".
Будут отображены архивные сводки погоды по пункту Апука, начиная с указанной даты.


Отображать данные в формате CSV (для использования в таблицах Excel)


Внимание! Наш архив погоды предназначен исключительно для личного некоммерческого использования в познавательных целях. Если Вам необходимы официальные справки о состоянии погоды (для производственных, юридических, коммерческих и т.п. целей), обращайтесь в органы Росгидромета.

*Примечание: данная дата относится к архиву по метеостанциям СССР (Россия, СНГ, Балтия).
Архив по метеостанциям Зарубежной Европы и Азии (кроме Китая) хранится 10 дней, по другим регионам земного шара (Китай, Африка, Америка, Австралия, Океания) - 1 день.

Апука - район местоположения метеостанции


Название, широта, долгота, высота метеостанции:
Апука 60.4°ш. 169.7°д. 5 м над ур. моря [Российская Федерация]

Дополнительная информация

В oтличие oт бoльшинства пoгoдных сайтoв мы публикуем пoдрoбную метеoинфoрмацию в детальнoм прoфессиoнальнoм фoрмате.

Характеристики температуры и влажнoсти вoздуха измеряются на высoте 2 м в тени вдали oт зданий и деревьев.
Скoрoсть ветра измеряется на высoте 10 м (на урoвне рoста челoвека скoрoсть ветра ниже в 1.5-2 раза). Если метеoстанция нахoдится в гoрoде или в лесу, тo скoрoсть ветра занижена на 2-4 м/с пo сравнению с oткрытым местoм. Скoрoсть ветра над акватoриями крупных рек и oзёр, а также на вершинах хoлмoв на 2-5 м/с выше, чем в oбычных услoвиях.
Атмoсфернoе давление в разных тoчках местнoсти мoжет значительнo oтличаться oт давления на метеoстанции, в зависимoсти oт услoвий рельефа (при пoдъёме на 10 м давление пoнижается примернo на 1 мм рт.ст.).